Regional Weather Roundup
Issued by NWS Kansas City/Pleasant Hill, MO

Home | Current Version | Previous Version | Text Only | Print | Product List | Glossary On
Versions: 1 2 3 4 5 6 7 8 9 10 11 12 13 14 15 16 17 18 19 20 21 22 23 24 25 26 27 28 29 30 31 32 33 34 35 36 37 38 39 40 41 42 43 44 45 46 47 48 49 50
000
ASUS43 KEAX 201404
RWREAX

WEATHER ROUNDUP FOR EASTERN KANSAS AND NORTHWEST MISSOURI
NATIONAL WEATHER SERVICE KANSAS CITY/PLEASANT HILL MO
800 AM CST SAT DEC 20 2014

KSZ040-057-103>105-MOZ028-029-037-043-201500-
...KANSAS CITY METROPOLITAN AREA...

CITY           SKY/WX    TMP DP  RH WIND       PRES   REMARKS
K.C. INTL      CLOUDY    34  31  88 S12       30.16F WCI  25
K.C. DOWNTOWN  CLOUDY    35  30  82 S13       30.19S WCI  26
LEES SUMMIT    CLOUDY    34  30  85 SW9       30.20S WCI  27
OLATHE - IXD   CLOUDY    33  31  92 S12       30.19S WCI  24
OLATHE - OJC   CLOUDY    33  31  92 S12       30.18S WCI  24
LAWRENCE       CLEAR     33  30  88 S10       30.18R WCI  25

$$

MOZ001>008-011>017-020>025-030>033-038>040-044>046-053-054-201500-
...NORTHERN AND CENTRAL MISSOURI...

CITY           SKY/WX    TMP DP  RH WIND       PRES   REMARKS
ST. JOSEPH     CLEAR     31  29  92 S7        30.16R WCI  24
MOSBY          CLOUDY    34  32  93 SE5       30.19F FOG     WCI  30
WARRENSBURG    CLOUDY    34  34 100 S8        30.22S FOG     WCI  27
WHITEMAN AFB   CLOUDY    36  33  90 SW8       30.22R WCI  30
CLINTON        CLOUDY    36  36 100 W6        30.24R WCI  31
SEDALIA        CLOUDY    38  36  92 SW3       30.22S
WARSAW         NOT AVBL
MARSHALL       FOG       39  39 100 CALM      30.22S VSB 3/4
CHILLICOTHE      N/A     34  33  96 CALM      30.21F
MOBERLY        FOG       36  32  87 SE6       30.21F VSB 1   WCI  31
KIRKSVILLE     FOG       33  33 100 S7        30.20S VSB<1/4 WCI  27

$$

MOZ041-047>049-056>058-063>065-088>090-097-201500-
...EASTERN AND SOUTHERN MISSOURI...

CITY           SKY/WX    TMP DP  RH WIND       PRES   REMARKS
ST. LOUIS INTL CLOUDY    37  27  67 S6        30.27R WCI  32
SPIRIT OF STL  CLOUDY    35  30  82 CALM      30.27R
COLUMBIA       CLOUDY    36  35  96 S7        30.23R FOG     WCI  30
JEFFERSON CITY CLOUDY    37  35  92 E3        30.25R FOG
ROLLA          CLOUDY    35  33  92 S5        30.22R FOG     WCI  31
LEBANON        CLOUDY    36  36 100 S3        30.22F FOG
OSAGE BEACH    CLOUDY    37  34  87 CALM      30.23S
SPRINGFIELD    FOG       37  37 100 S6        30.22R VSB 1/4 WCI  32
BRANSON        FOG       37  36  93 CALM      30.23S VSB 1/8
NEVADA         CLOUDY    36  36 100 SW5       30.25R WCI  32
JOPLIN         CLOUDY    36  35  96 W3        30.25R FOG
WEST PLAINS    CLOUDY    34  31  88 CALM      30.24S FOG

$$

IAZ060-094-KSZ022-034>040-054-083-096-NEZ052-066-093-201500-
...KANSAS...SOUTHEAST NEBRASKA AND IOWA...

CITY           SKY/WX    TMP DP  RH WIND       PRES   REMARKS
TOPEKA         CLEAR     35  31  85 S10       30.16S WCI  27
MANHATTAN      CLEAR     33  31  92 SW13      30.13R FOG     WCI  24
EMPORIA        CLOUDY    32  31  96 S13       30.16S FOG     WCI  22
CHANUTE        CLOUDY    37  33  85 S6        30.23R WCI  32
WICHITA        MOCLDY    35  33  92 S9        30.17S FOG     WCI  28
OMAHA          CLOUDY    32  32 100 S9        30.13R FOG     WCI  24
LINCOLN        CLOUDY    32  31  96 S6        30.11R FOG     WCI  26
FALLS CITY     CLOUDY    33  30  88 S6        30.13R WCI  28
LAMONI         CLOUDY    31  30  96 S9        30.16S FOG     WCI  23
DES MOINES     CLOUDY    32  28  85 S5        30.18R WCI  27

$$



USA.gov is the U.S. government's official web portal to all federal, state and local government web resources and services.